DW0307 Weather Reports


Display with metric or nautical units.
time (UTC)temp
F
wind
direction
speed
MPH
gust
MPH
rain 1hr
in
rain 24hr
in
rain mn
in
humidity
%
barometer
mb
20260507090047 66 208 12.0 21.0 0.00 0.02 0.02 62 1011.7
20260507084547 65 217 13.0 19.0 0.00 0.02 0.02 62 1011.4
20260507083044 65 245 16.0 21.0 0.00 0.02 0.02 62 1011.4
20260507081548 65 240 15.0 21.0 0.00 0.02 0.02 63 1011.3
20260507080051 64 245 14.0 22.0 0.00 0.02 0.02 64 1011.5
20260507074600 64 216 14.0 21.0 0.00 0.02 0.02 64 1011.4
20260507073043 64 236 13.0 17.0 0.00 0.02 0.02 65 1011.3
20260507071543 63 242 8.0 14.0 0.00 0.02 0.02 69 1011.2
20260507070043 62 233 10.0 16.0 0.00 0.02 0.02 72 1011.2
20260507064550 60 234 9.0 17.0 0.00 0.02 0.02 73 1011.1
20260507063054 60 229 9.0 16.0 0.00 0.02 0.02 74 1011.0
20260507061544 59 222 8.0 14.0 0.00 0.02 0.02 77 1010.8
20260507060045 58 224 12.0 17.0 0.00 0.02 0.02 76 1010.9
20260507054604 58 221 8.0 14.0 0.00 0.02 0.02 77 1010.9
20260507053052 57 215 8.0 14.0 0.00 0.02 0.02 77 1010.6
20260507051542 57 217 8.0 17.0 0.00 0.02 0.02 77 1010.6
20260507050054 56 228 10.0 16.0 0.00 0.02 0.02 78 1010.6
20260507044549 56 211 9.0 16.0 0.00 0.02 0.02 79 1010.3
20260507043050 55 205 8.0 14.0 0.00 0.02 0.02 80 1010.2
20260507041548 54 219 8.0 12.0 0.00 0.02 0.02 80 1010.2
20260507040051 54 212 8.0 12.0 0.00 0.02 0.02 81 1010.2
20260507034555 54 238 6.0 10.0 0.00 0.02 0.02 81 1010.3
20260507033051 54 219 6.0 9.0 0.00 0.02 0.02 81 1010.4
20260507031605 55 214 7.0 11.0 0.00 0.02 0.02 80 1010.4
20260507030055 55 219 6.0 9.0 0.00 0.02 0.02 81 1010.6
20260507024553 55 215 6.0 10.0 0.00 0.02 0.02 80 1010.7
20260507023054 56 238 6.0 11.0 0.00 0.02 0.02 80 1010.8
20260507021547 56 231 7.0 11.0 0.00 0.02 0.02 81 1010.8
20260507020050 56 221 7.0 12.0 0.00 0.02 0.02 81 1011.0
20260507014550 56 213 9.0 15.0 0.00 0.02 0.02 82 1010.9
20260507013045 56 215 9.0 15.0 0.00 0.02 0.02 84 1010.8
20260507011549 56 215 8.0 15.0 0.00 0.02 0.02 84 1010.7
20260507010044 56 190 8.0 15.0 0.00 0.02 0.02 85 1010.1
20260507004544 55 193 8.0 11.0 0.00 0.02 0.02 84 1009.7
20260507003051 55 216 8.0 14.0 0.00 0.02 0.02 84 1009.9
20260507001551 56 216 10.0 15.0 0.00 0.02 0.02 84 1010.3
20260507000051 55 236 11.0 18.0 0.00 0.02 0.02 85 1010.2
20260506234550 56 233 14.0 19.0 0.02 0.02 0.02 84 1010.3
20260506233108 56 223 8.0 14.0 0.02 0.02 0.02 84 1010.6
20260506231556 56 232 12.0 23.0 0.02 0.02 0.02 83 1010.9
20260506230053 58 223 16.0 33.0 0.01 0.01 0.01 79 1010.9
20260506224546 61 242 19.0 25.0 0.00 0.00 0.00 71 1010.5
20260506223053 61 227 11.0 18.0 0.00 0.00 0.00 68 1010.2
20260506221553 61 248 9.0 19.0 0.00 0.00 0.00 67 1010.2
20260506220056 60 250 10.0 20.0 0.00 0.00 0.00 67 1010.2
20260506214552 60 219 6.0 16.0 0.00 0.00 0.00 66 1010.0
20260506213105 60 222 11.0 16.0 0.00 0.00 0.00 67 1010.0
20260506211550 59 221 9.0 17.0 0.00 0.00 0.00 68 1010.0
20260506210047 58 213 8.0 14.0 0.00 0.00 0.00 71 1010.1
20260506204551 56 214 5.0 11.0 0.00 0.00 0.00 73 1010.0
20260506203050 55 249 4.0 8.0 0.00 0.00 0.00 72 1010.1
20260506201547 56 258 5.0 8.0 0.00 0.00 0.00 70 1010.1
20260506200051 58 231 6.0 10.0 0.00 0.00 0.00 69 1010.1
20260506194555 58 223 5.0 8.0 0.00 0.00 0.00 70 1010.1
20260506193057 58 196 4.0 7.0 0.00 0.00 0.00 71 1010.2
20260506191544 56 206 1.0 3.0 0.00 0.00 0.00 71 1010.4
20260506190052 56 206 1.0 3.0 0.00 0.00 0.00 70 1010.4
20260506184550 58 206 2.0 3.0 0.00 0.00 0.00 68 1010.1
20260506183051 58 206 2.0 5.0 0.00 0.00 0.00 67 1010.1
20260506181549 60 205 2.0 5.0 0.00 0.00 0.00 64 1010.0
20260506174550 63 201 4.0 7.0 0.00 0.00 0.00 61 1009.9
20260506173043 63 210 4.0 11.0 0.00 0.00 0.00 60 1010.0
20260506171557 64 217 4.0 9.0 0.00 0.00 0.00 59 1009.8
20260506170103 65 215 6.0 10.0 0.00 0.00 0.00 58 1009.8
20260506164551 66 213 8.0 13.0 0.00 0.00 0.00 56 1009.9
20260506163111 67 221 9.0 22.0 0.00 0.00 0.00 54 1009.8
20260506161545 67 238 11.0 19.0 0.00 0.00 0.00 52 1010.0
20260506160056 67 225 13.0 21.0 0.00 0.00 0.00 53 1010.1
20260506154615 68 235 14.0 20.0 0.00 0.00 0.00 52 1010.1
20260506153117 68 228 13.0 19.0 0.00 0.00 0.00 51 1010.2
20260506151558 70 239 13.0 22.0 0.00 0.00 0.00 50 1010.1
20260506150055 71 219 11.0 24.0 0.00 0.00 0.00 48 1010.3
20260506144548 71 207 10.0 20.0 0.00 0.00 0.00 48 1010.1
20260506143101 71 188 13.0 22.0 0.00 0.00 0.00 47 1010.4
20260506141549 71 237 13.0 22.0 0.00 0.00 0.00 47 1010.3
20260506140049 72 212 14.0 22.0 0.00 0.00 0.00 47 1010.2
20260506134546 74 217 14.0 25.0 0.00 0.00 0.00 45 1010.0
20260506133045 73 218 11.0 18.0 0.00 0.00 0.00 46 1010.1
20260506131550 73 221 12.0 19.0 0.00 0.00 0.00 47 1010.2
20260506130057 72 201 10.0 24.0 0.00 0.00 0.00 48 1010.1
20260506124549 70 216 9.0 21.0 0.00 0.00 0.00 52 1010.1
20260506123050 69 218 9.0 16.0 0.00 0.00 0.00 53 1010.0
20260506121549 67 205 10.0 20.0 0.00 0.00 0.00 52 1009.9
20260506120052 68 191 9.0 20.0 0.00 0.00 0.00 51 1009.9
20260506114559 68 208 10.0 17.0 0.00 0.00 0.00 51 1010.0
20260506113046 69 148 10.0 20.0 0.00 0.00 0.00 49 1009.9
20260506111551 69 165 10.0 22.0 0.00 0.00 0.00 50 1010.0
20260506110055 70 177 11.0 21.0 0.00 0.00 0.00 50 1010.1
20260506104550 70 189 8.0 16.0 0.00 0.00 0.00 51 1010.0
20260506103047 68 173 6.0 11.0 0.00 0.00 0.00 50 1010.0
20260506101547 68 180 8.0 16.0 0.00 0.00 0.00 49 1010.0
20260506100047 69 229 11.0 24.0 0.00 0.00 0.00 48 1009.8
20260506094615 70 223 9.0 16.0 0.00 0.00 0.00 46 1009.8
20260506093053 71 262 12.0 19.0 0.00 0.00 0.00 44 1009.8
20260506091547 71 221 9.0 21.0 0.00 0.00 0.00 47 1009.7